Tracking 17267 objects as of 1-September-2015
HD Live streaming from Space Station

SL-3 R/B

Track SL-3 R/B now!
10-day predictions
SL-3 R/B is classified as:


NORAD ID: 11849
Int'l Code: 1980-051B
Perigee: 372.9 km
Apogee: 381.9 km
Inclination: 97.7 °
Period: 92.0 minutes
Semi major axis: 6748 km
RCS: 5.692 m2 (large)
Launch date: June 18, 1980
Source: Commonwealth of Independent States (former USSR) (CIS)

Note: This is a ROCKET BODY
Your satellite tracking list
Your tracking list is empty





NASA's NSSDC Master Catalog

Two Line Element Set (TLE):
1 11849U 80051B   15243.21619719  .00019266  00000-0  18948-3 0  9995
2 11849 097.6810 164.8250 0006609 110.5350 249.6619 15.66035880935453

Source of the keplerian elements: AFSPC

N2YO: 267